Location: C�mpuri de-Sus
(45.9500°N, 22.5500°E)
Time: 13:37:03
(UTC+00:00)

Meteor 1-21 Rocket - Pass Details

Date: 24 October 2021
Orbit: 834 x 907 km, 81.2° (Epoch: 06 December)

Event Time Altitude Azimuth Distance (km) Brightness Sun altitude
Rises 15:43:37 0° 350° (N) 3,515 7.4 -3.4°
Reaches altitude 10° 15:46:05 10° 353° (N) 2,579 6.7 -3.8°
Maximum altitude 15:51:59 72° 78° (ENE) 953 4.3 -4.8°
Drops below altitude 10° 15:57:52 10° 162° (SSE) 2,583 6.7 -5.8°
Sets 16:00:20 0° 165° (SSE) 3,520 7.4 -6.3°
